Location: Bartlow
(52.0833°N, 0.3167°E)
Time: 19:53:30
(UTC+00:00)

Meteor 2-17 Rocket - Pass Details

Date: 24 April 2024
Orbit: 934 x 957 km, 82.5° (Epoch: 23 May)

Event Time Altitude Azimuth Distance (km) Brightness Sun altitude
Exits shadow 02:58:17 18° 246° (WSW) 2,164 5.8 -14.1°
Maximum altitude 03:01:52 30° 295° (WNW) 1,623 5.5 -13.7°
Drops below altitude 10° 03:07:11 10° 356° (N) 2,671 7.3 -13.1°
Sets 03:10:01 0° 7° (N) 3,616 8.3 -12.8°
